Regional Weather Roundup
Issued by NWS

Home | Current Version | Previous Version | Text Only | Print | Product List | Glossary Off
Versions: 1 2 3 4 5 6 7 8 9 10 11 12 13 14 15 16 17 18 19 20 21 22 23 24 25 26 27 28 29 30 31 32 33 34 35 36 37 38 39 40 41 42 43 44 45 46 47 48 49 50

000
ASUS43 KLSX 011159
RWRMO

WEATHER SUMMARY FOR MISSOURI
NATIONAL WEATHER SERVICE SPRINGFIELD MO
700 AM CDT SAT AUG 01 2015

NOTE: "FAIR" INDICATES FEW OR NO CLOUDS BELOW 12,000 FEET WITH NO
       SIGNIFICANT WEATHER AND/OR OBSTRUCTIONS TO VISIBILITY.
       CURRENT SKY AND/OR WEATHER CONDITIONS ARE NOT AVAILABLE FOR
       CHILLICOTHE AND FARMINGTON.

MOZ001>031-035>038-043-044-053-054-011300-
...NORTHERN AND WESTERN MISSOURI...

CITY           SKY/WX    TMP DP  RH WIND       PRES   REMARKS
KANSAS CTY INT PTCLDY    70  68  93 SW6       30.05R
6HR MIN TEMP:  69; 6HR MAX TEMP:  79;

KANSAS C DTWN  CLEAR     75  70  84 SW3       30.04S
6HR MIN TEMP:  74; 6HR MAX TEMP:  79;

LEE`S SUMMIT   CLEAR     72  69  90 SW6       30.06S
6HR MIN TEMP:  72; 6HR MAX TEMP:  76;

ST JOSEPH      CLEAR     71  69  93 CALM      30.04S
6HR MIN TEMP:  69; 6HR MAX TEMP:  74;

CHILLICOTHE      N/A     70  68  93 CALM      30.06R
6HR MIN TEMP:  69; 6HR MAX TEMP:  77;

KIRKSVILLE     PTCLDY    69  65  86 S5        30.07R
6HR MIN TEMP:  68; 6HR MAX TEMP:  75; 6HR PCP: TRACE;


$$
MOZ066>068-077>081-088>096-101>105-011300-
...SOUTHWEST MISSOURI...

CITY           SKY/WX    TMP DP  RH WIND       PRES   REMARKS
SPRINGFIELD    CLEAR     65  61  87 S6        30.09R
6HR MIN TEMP:  63; 6HR MAX TEMP:  72;

JOPLIN         CLEAR     63  59  87 CALM      30.09S
6HR MIN TEMP:  60; 6HR MAX TEMP:  66;


$$
MOZ032>034-039>042-045>050-055>058-069>072-011300-
...CENTRAL MISSOURI...

CITY           SKY/WX    TMP DP  RH WIND       PRES   REMARKS
COLUMBIA       CLEAR     69  67  93 SW7       30.05S
6HR MIN TEMP:  68; 6HR MAX TEMP:  74;

JEFFERSON CITY CLEAR     68  66  93 CALM      30.05R
6HR MIN TEMP:  67; 6HR MAX TEMP:  71;

ROLLA          CLEAR     67  64  90 VRB3      30.07R
6HR MIN TEMP:  63; 6HR MAX TEMP:  69;

SEDALIA        CLEAR     72  66  81 SW3       30.07R
6HR MIN TEMP:  69; 6HR MAX TEMP:  74;

WHITEMAN AFB   CLEAR     70  66  88 CALM      30.05R
WARRENSBURG    CLEAR     68  64  88 S3        30.05S
OSAGE BEACH    CLEAR     64  61  88 CALM      30.07S

$$
MOZ051-052-059>065-011300-
...EAST CENTRAL MISSOURI...

CITY           SKY/WX    TMP DP  RH WIND       PRES   REMARKS
ST LOUIS INTL  NOT AVBL
SPIRIT OF STL  CLEAR     69  68  96 CALM      30.05R
6HR MIN TEMP:  67; 6HR MAX TEMP:  72;

ST CHARLES     PTCLDY    70  68  93 CALM      30.04R
6HR MIN TEMP:  68; 6HR MAX TEMP:  74;


$$
MOZ072>076-082>087-097>100-106>115-011300-
...SOUTH CENTRAL AND SOUTHEAST MISSOURI...

CITY           SKY/WX    TMP DP  RH WIND       PRES   REMARKS
CAPE GIRARDEAU PTCLDY    67  67 100 CALM      30.03R
6HR MIN TEMP:  65; 6HR MAX TEMP:  70;

FARMINGTON     CLEAR     64  63  94 SW3       30.10R
6HR MIN TEMP:  63; 6HR MAX TEMP:  66;

POPLAR BLUFF   CLEAR     70  67  90 NW3       30.03R
6HR MIN TEMP:  67; 6HR MAX TEMP:  72;

WEST PLAINS    CLEAR     67  61  81 CALM      30.11R
6HR MIN TEMP:  64; 6HR MAX TEMP:  69;


$$


USA.gov is the U.S. government's official web portal to all federal, state and local government web resources and services.